TimeEST,TemperatureF,Dew PointF,Humidity,Sea Level PressureIn,VisibilityMPH,Wind Direction,Wind SpeedMPH,Gust SpeedMPH,PrecipitationIn,Events,Conditions,WindDirDegrees,DateUTC
12:52 AM,32.0,28.9,88,30.29,7.0,SE,3.5,-,N/A,,Clear,130,2012-12-04 05:52:00
1:52 AM,30.9,28.0,89,30.28,7.0,ESE,3.5,-,N/A,,Clear,120,2012-12-04 06:52:00
2:52 AM,30.9,28.9,92,30.28,6.0,East,4.6,-,N/A,,Scattered Clouds,100,2012-12-04 07:52:00
3:52 AM,35.1,32.0,89,30.26,10.0,ESE,8.1,-,N/A,,Overcast,110,2012-12-04 08:52:00
4:52 AM,37.9,34.0,86,30.26,10.0,East,4.6,-,N/A,,Overcast,90,2012-12-04 09:52:00
5:13 AM,37.4,33.8,87,30.24,10.0,Calm,Calm,-,N/A,,Overcast,0,2012-12-04 10:13:00
5:52 AM,37.9,34.0,86,30.26,10.0,ESE,9.2,-,0.00,,Overcast,120,2012-12-04 10:52:00
6:52 AM,39.9,35.1,83,30.25,10.0,ESE,12.7,-,N/A,,Overcast,110,2012-12-04 11:52:00
7:52 AM,42.1,36.0,79,30.25,10.0,East,6.9,-,N/A,,Overcast,100,2012-12-04 12:52:00
8:52 AM,45.0,37.9,76,30.25,10.0,East,5.8,-,N/A,,Overcast,100,2012-12-04 13:52:00
9:52 AM,46.9,39.9,77,30.25,8.0,ESE,6.9,-,N/A,,Overcast,110,2012-12-04 14:52:00
10:52 AM,-9999,-9999,N/A,30.20,-9999.0,North,-9999.0,-,N/A,,Overcast,0,2012-12-04 15:52:00
11:52 AM,50.0,44.1,80,30.19,6.0,Variable,4.6,-,N/A,,Haze,0,2012-12-04 16:52:00
12:18 PM,50.0,44.6,82,30.16,5.0,ENE,9.2,16.1,N/A,,Haze,70,2012-12-04 17:18:00
12:52 PM,50.0,46.0,86,30.17,5.0,ESE,10.4,17.3,N/A,,Overcast,120,2012-12-04 17:52:00
1:49 PM,53.6,46.4,77,30.11,7.0,East,11.5,19.6,N/A,,Overcast,90,2012-12-04 18:49:00
1:52 PM,53.1,46.9,80,30.12,7.0,East,13.8,19.6,N/A,,Overcast,90,2012-12-04 18:52:00
2:52 PM,55.0,48.0,77,30.11,8.0,East,9.2,-,N/A,,Overcast,100,2012-12-04 19:52:00
3:33 PM,53.6,48.2,82,30.09,8.0,ESE,9.2,-,N/A,,Scattered Clouds,120,2012-12-04 20:33:00
3:43 PM,53.6,48.2,82,30.08,8.0,Variable,6.9,-,N/A,,Mostly Cloudy,0,2012-12-04 20:43:00
3:50 PM,53.6,48.2,82,30.09,8.0,South,6.9,-,N/A,,Scattered Clouds,170,2012-12-04 20:50:00
3:52 PM,54.0,48.0,80,30.10,8.0,Variable,4.6,-,N/A,,Scattered Clouds,0,2012-12-04 20:52:00
4:04 PM,55.4,48.2,77,30.09,7.0,South,9.2,16.1,N/A,,Mostly Cloudy,180,2012-12-04 21:04:00
4:52 PM,54.0,48.9,83,30.09,9.0,Variable,4.6,-,N/A,,Overcast,0,2012-12-04 21:52:00
6:52 PM,54.0,48.9,83,30.04,8.0,Calm,Calm,-,N/A,,Overcast,0,2012-12-04 23:52:00
7:52 PM,55.0,50.0,83,30.01,8.0,Variable,3.5,-,N/A,,Mostly Cloudy,0,2012-12-05 00:52:00
8:01 PM,55.4,50.0,82,30.00,8.0,Variable,4.6,-,N/A,,Scattered Clouds,0,2012-12-05 01:01:00
8:52 PM,57.0,50.0,77,29.99,9.0,Variable,4.6,-,N/A,,Clear,0,2012-12-05 01:52:00
9:52 PM,59.0,48.9,69,29.95,10.0,Calm,Calm,-,N/A,,Clear,0,2012-12-05 02:52:00
10:52 PM,60.1,48.0,64,29.92,10.0,SW,17.3,28.8,N/A,,Mostly Cloudy,220,2012-12-05 03:52:00